GFSFLT1_prec_cloud_288.txt.gz
Cloud_Cover
100 100 100 100 100 100 100 100 100 100 100 100 100 100 100 100 100 100 100 100 98 96 8 5 5 4 0 0 0 1 16 11 90
100 100 100 100 100 100 100 100 100 100 100 100 100 100 100 88 100 100 100 100 100 98 92 22 5 5 0 0 3 7 46 73 0
100 100 100 100 100 100 100 100 100 100 100 100 100 100 100 92 72 100 100 100 100 100 100 100 50 6 2 0 8 0 32 24 64
100 100 100 100 100 100 100 100 100 84 100 100 100 100 100 100 99 94 100 100 100 68 100 90 100 70 60 7 10 12 21 46 96
100 100 100 100 100 100 100 100 100 100 100 100 100 100 100 100 100 100 100 100 100 94 52 79 100 32 38 46 37 4 60 52 29
100 100 100 100 100 100 100 100 100 100 100 96 100 100 94 100 100 100 100 100 100 98 87 100 100 100 18 49 100 23 45 61 5
100 100 100 100 100 100 100 100 100 100 100 100 100 100 100 100 100 100 100 100 100 100 46 98 98 100 36 5 66 36 16 49 5
76 100 100 100 100 100 100 100 100 100 100 100 100 100 100 100 100 100 100 100 100 100 100 100 100 96 89 5 5 95 100 100 94
0 25 100 100 100 100 100 100 100 100 100 100 100 100 100 100 100 100 100 100 100 100 100 100 100 100 100 87 91 73 100 100 100
0 0 1 63 95 100 100 100 100 100 100 100 100 100 100 100 100 100 100 100 100 74 80 100 100 100 100 91 83 100 100 73 100
0 0 0 0 4 2 46 100 100 100 100 100 100 100 100 100 100 100 100 100 100 100 100 83 100 100 100 100 92 100 79 100 100
0 0 0 0 0 0 5 4 37 100 100 100 100 100 100 100 100 100 100 100 100 100 100 100 98 100 100 100 100 100 100 58 100
0 0 0 0 0 0 0 0 0 0 29 100 100 100 100 100 100 100 100 100 100 100 100 100 100 100 100 100 100 100 100 51 100
0 0 0 0 0 0 0 0 0 0 0 1 77 100 100 100 100 100 100 100 100 100 100 100 100 100 100 100 100 100 100 97 59
0 0 0 1 0 0 0 0 0 0 0 0 0 13 10 68 100 100 100 100 100 100 100 100 100 100 100 100 100 100 100 100 100
3 0 0 0 5 2 4 5 4 0 0 5 0 0 0 10 6 100 100 100 100 100 100 100 100 100 100 100 100 100 100 100 100
0 2 5 5 5 5 5 5 5 5 4 5 4 0 0 0 0 3 92 100 100 100 100 100 100 100 100 100 100 100 100 100 100
4 5 5 5 5 12 14 5 5 5 5 5 48 6 34 35 1 15 100 65 93 100 100 100 100 100 100 100 100 100 100 100 100
4 5 5 5 31 69 49 24 5 69 8 5 5 84 100 99 24 0 26 98 100 100 100 100 100 100 100 100 100 100 100 100 100
5 5 5 7 68 94 97 95 100 88 79 40 76 62 80 84 96 100 2 69 100 100 100 100 100 100 100 100 100 100 100 100 100

GFSFLT1_prec_cloud_294.txt.gz
Cloud_Cover
100 98 100 100 100 100 100 100 100 100 100 100 100 100 100 100 100 100 94 100 100 100 100 100 69 5 0 5 5 85 100 100 98
100 100 100 100 100 100 100 100 100 100 100 100 100 100 100 100 100 100 100 100 100 100 100 100 100 61 12 5 3 24 93 12 4
100 100 100 98 100 100 100 100 100 100 100 100 100 100 100 100 100 100 100 100 100 100 100 100 100 100 99 94 6 5 19 51 9
100 100 100 99 100 100 100 100 100 100 100 100 100 100 100 100 100 100 95 100 100 100 100 100 100 100 100 100 99 28 79 36 5
100 100 100 100 100 100 100 100 100 100 100 100 100 100 100 100 100 100 100 100 100 100 100 100 100 100 100 100 100 100 10 6 1
100 100 28 100 100 100 100 82 100 100 100 100 100 100 100 100 100 100 100 100 100 100 100 100 100 100 100 100 95 100 82 11 15
100 100 100 100 100 100 100 100 44 100 100 100 100 100 100 100 100 100 100 100 100 100 100 100 100 100 100 100 99 99 97 89 57
100 100 100 100 100 100 100 100 100 100 100 71 100 100 100 100 100 100 100 100 100 100 100 100 100 100 100 100 100 100 98 100 94
100 100 100 100 100 100 100 86 94 100 100 100 100 100 100 97 100 99 99 100 100 100 100 100 100 100 100 100 100 100 100 99 78
22 97 100 100 100 100 100 100 100 100 100 100 35 51 64 100 100 100 98 89 100 100 100 100 100 100 100 100 100 100 100 99 100
0 0 42 100 100 100 100 100 100 100 100 100 100 100 96 95 100 100 100 66 91 100 100 100 100 100 100 100 100 100 100 100 100
6 5 3 1 2 7 61 99 100 100 100 100 100 100 100 100 99 100 100 100 93 100 100 100 100 100 100 100 100 100 100 100 100
0 0 0 1 4 4 5 1 1 7 26 94 100 100 100 100 100 100 100 100 100 100 100 100 100 100 100 100 100 100 100 100 100
0 0 0 0 0 0 0 0 0 4 1 1 34 99 100 100 100 100 100 100 95 100 100 100 100 100 97 100 100 100 100 100 100
0 0 0 0 0 0 0 0 0 0 0 0 0 0 17 97 100 100 100 100 100 100 100 100 100 100 100 64 100 100 100 100 100
0 0 0 0 0 0 0 0 0 0 0 0 0 0 0 0 1 5 94 100 100 100 100 100 100 100 100 100 100 100 100 100 100
0 0 1 0 0 0 0 0 0 0 0 0 0 0 0 0 0 0 0 6 100 100 100 100 100 100 100 100 100 98 100 100 100
1 0 0 0 2 1 0 2 5 5 4 0 5 5 4 4 0 0 0 0 0 37 100 100 100 100 100 100 100 100 100 100 100
3 0 0 5 5 5 5 5 5 10 5 5 5 5 23 58 4 0 0 0 0 5 26 100 100 100 100 100 100 100 100 100 100
0 0 0 4 5 5 5 5 5 5 5 5 5 5 5 5 6 32 5 0 0 0 0 0 75 100 100 100 100 100 100 100 100

GFSFLT1_prec_cloud_300.txt.gz
Cloud_Cover
100 100 100 100 100 100 100 100 100 100 100 100 100 100 100 100 82 6 26 62 80 86 100 94 99 100 100 11 100 100 100 100 100
100 97 100 96 100 100 100 100 100 100 100 100 100 100 100 95 90 86 97 100 100 100 89 100 98 100 100 72 12 83 100 97 100
94 100 100 96 100 100 100 100 100 100 100 100 100 100 100 100 98 85 100 100 71 100 98 61 90 54 96 100 81 8 26 87 100
100 100 100 100 100 76 100 100 100 100 100 100 100 100 100 100 100 100 100 100 95 97 100 100 69 86 98 100 100 100 86 5 47
100 100 100 100 100 100 100 100 100 100 100 100 100 100 100 100 100 100 100 100 100 100 100 100 100 72 78 100 80 99 100 100 46
100 100 100 99 100 100 96 100 100 100 100 100 100 100 100 100 100 100 100 100 100 100 100 100 100 100 100 93 99 96 100 100 100
88 100 100 100 100 100 100 100 100 52 99 100 100 100 100 100 100 100 100 100 100 100 100 100 100 100 92 100 100 100 100 100 100
67 59 100 100 100 100 100 100 100 100 100 70 88 43 100 100 100 100 100 100 100 100 100 100 100 100 99 100 100 100 100 100 97
2 40 79 100 100 96 100 100 100 100 100 100 100 100 68 100 100 95 100 100 100 100 100 100 100 100 100 100 96 100 100 99 100
4 4 5 92 100 100 100 100 98 100 100 100 100 100 100 100 48 100 100 92 100 100 100 100 100 100 100 100 100 100 100 100 100
5 5 5 68 96 100 100 100 100 100 100 100 100 100 100 100 100 100 100 43 99 100 100 100 100 100 100 100 100 100 100 100 100
0 5 5 5 6 14 74 98 100 100 100 100 100 69 100 100 100 100 96 100 41 67 100 100 100 100 100 100 100 100 100 100 100
5 5 0 4 2 5 47 8 5 75 100 100 100 100 100 100 16 92 97 97 100 100 66 64 100 100 100 100 100 100 100 100 98
5 5 5 5 5 3 0 1 1 7 41 53 99 100 100 100 100 100 100 88 100 100 100 100 85 87 100 100 100 100 100 100 100
86 43 32 18 5 0 0 0 0 1 1 3 4 18 18 59 100 78 100 100 99 100 100 91 100 55 66 100 100 100 100 100 100
35 5 5 5 5 0 1 0 0 0 0 0 0 0 0 1 4 4 1 5 5 2 8 100 100 100 100 7 98 100 100 100 100
31 8 72 73 15 5 19 6 4 0 0 1 0 0 0 0 0 0 5 5 4 18 5 5 4 23 96 20 25 37 100 100 100
81 97 100 59 49 17 4 0 0 0 0 0 0 2 5 4 0 0 0 0 0 0 3 5 4 1 2 22 88 81 0 74 100
6 77 36 22 14 5 0 0 0 0 0 0 5 5 5 5 5 1 0 0 0 0 0 0 1 4 0 0 0 22 68 100 100
5 5 0 4 5 5 4 3 0 5 1 0 3 5 5 5 14 83 4 0 0 0 0 0 0 0 0 3 5 4 100 100 100

GFSFLT1_prec_cloud_306.txt.gz
Cloud_Cover
100 100 100 100 100 100 97 100 100 100 100 100 100 100 100 99 90 48 100 98 17 5 5 99 93 30 91 100 100 5 3 2 5
100 100 100 100 94 96 100 100 100 100 100 100 100 100 100 100 83 84 94 64 73 95 70 63 26 45 95 65 100 82 7 5 5
100 100 100 100 100 100 100 100 100 100 100 100 100 100 100 100 98 87 93 100 100 100 100 81 47 71 92 11 94 100 100 80 57
95 100 100 100 100 100 100 100 100 100 100 100 100 100 100 100 100 100 51 100 100 100 100 79 37 45 34 99 42 42 100 96 100
87 100 100 100 100 100 100 100 100 100 100 100 100 100 100 100 100 100 100 97 100 100 100 84 100 74 96 84 6 5 6 100 95
100 100 100 100 100 100 100 100 100 100 100 100 100 100 100 100 100 100 100 100 100 100 100 83 84 97 100 58 100 70 54 62 71
93 97 100 100 100 100 100 100 100 100 100 100 100 100 100 100 100 100 100 100 100 100 100 100 91 100 100 98 100 100 100 98 63
0 0 19 100 100 100 100 100 100 100 100 100 100 100 100 100 100 100 100 100 100 100 100 100 100 100 100 100 100 100 100 98 99
0 0 0 62 87 87 100 100 100 100 100 100 100 100 100 100 100 100 100 100 100 100 100 100 100 100 100 100 100 79 100 100 92
0 0 0 0 0 4 7 97 100 100 100 100 100 100 100 100 100 100 100 100 100 100 100 100 100 100 100 100 100 100 100 100 100
4 2 0 0 0 0 3 63 26 89 100 100 100 100 100 100 100 100 100 100 100 100 100 100 100 100 100 100 100 100 100 100 100
15 5 5 5 4 0 0 0 2 4 7 74 72 44 65 100 100 100 100 100 100 100 100 100 100 100 100 100 100 100 100 100 100
25 72 71 13 6 2 0 0 0 0 0 5 35 99 100 100 100 100 100 100 100 100 100 33 100 73 92 100 100 100 100 100 100
68 38 32 53 60 64 46 22 5 6 56 49 5 11 17 66 100 100 100 100 100 100 100 100 100 100 100 100 100 100 100 100 100
52 79 48 100 97 96 100 100 100 81 35 85 84 10 17 5 5 11 100 100 100 100 100 100 100 100 100 100 100 100 100 100 92
59 5 21 99 100 100 100 57 100 100 96 17 5 5 5 2 4 5 5 22 95 100 100 100 100 100 100 100 100 100 100 100 99
98 94 40 39 88 100 100 33 42 81 59 70 13 5 3 1 0 0 0 5 32 23 32 87 100 100 100 100 100 100 100 97 100
70 84 87 80 47 5 84 50 12 10 5 3 1 0 2 5 1 0 3 1 4 5 5 2 0 6 10 18 100 100 24 2 9
8 43 50 77 5 5 18 5 5 5 1 4 5 4 5 5 8 10 24 5 5 5 5 5 5 5 1 1 4 5 5 5 5
98 94 92 67 96 100 100 100 73 3 0 0 1 3 1 3 5 5 1 0 0 0 0 0 0 0 0 0 0 4 5 5 5